Location: Colonia Mina de C?rbuni
(46.1667°N, 22.7167°E)
Time: 06:17:49
(UTC+00:00)

Tiros 1 - Pass Details

Date: 01 May 2024
Orbit: 624 x 657 km, 48.4° (Epoch: 25 May)

Event Time Altitude Azimuth Distance (km) Brightness Sun altitude
Rises 22:10:07 0° 285° (WNW) 2,945 10.8 -28.3°
Reaches altitude 10° 22:12:28 10° 286° (WNW) 2,029 9.9 -28.3°
Enters shadow 22:14:21 24° 288° (WNW) 1,319 8.9 -28.3°
